Latest Weather Observations for Pallamana

IDS60801

Issued at 7:35 pm CST Wednesday 1 October 2014 (issued every 30 minutes, with the page automatically refreshed every 10 minutes)

About weather observations | Map of weather stations | Latest weather observations for SA | Other Formats
Station Details ID: 024584 Name: PALLAMANA AERODROME Lat: -35.06 Lon: 139.23 Height: 45.0 m
Data from the previous 72 hours. | See also: Recent months at Pallamana
Date/Time
CST
Temp
°C
App
Temp
°C
Dew
Point
Rel
Hum
%
Delta-T
°C
Wind Press
QNH
hPa
Press
MSL
hPa
Rain
since 9 am
mm
Dir
 
Spd
km/h
Gust
km/h
Spd
kts
Gust
kts
01/07:30pm 9.6 5.9 4.4 70 2.3 SSW 13 15 7 8 1028.5 1028.5 0.0
01/07:00pm 10.3 6.6 4.4 67 2.6 SSW 13 17 7 9 1028.2 1028.2 0.0
01/06:30pm 11.9 7.8 4.3 59 3.4 SSW 15 19 8 10 1027.9 1027.9 0.0
01/06:00pm 13.3 8.4 4.3 54 4.1 S 19 24 10 13 1027.6 1027.6 0.0
01/05:30pm 14.3 9.3 3.7 49 4.8 S 19 26 10 14 1027.4 1027.4 0.0
01/05:00pm 15.2 9.7 4.1 47 5.1 S 22 30 12 16 1027.5 1027.5 0.0
01/04:30pm 16.1 11.0 4.0 44 5.6 S 20 33 11 18 1027.3 1027.3 0.0
01/04:00pm 16.9 11.6 3.1 39 6.3 S 20 28 11 15 1027.1 1027.1 0.0
01/03:30pm 17.1 10.5 2.2 36 6.7 S 26 32 14 17 1026.9 1026.9 0.0
01/03:00pm 18.5 13.2 3.2 36 7.1 SSW 20 33 11 18 1026.9 1026.9 0.0
01/02:30pm 17.8 12.8 3.6 39 6.6 S 19 24 10 13 1026.9 1026.9 0.0
01/02:00pm 18.5 13.0 4.1 38 6.8 SSW 22 32 12 17 1027.3 1027.3 0.0
01/01:30pm 17.3 12.0 2.8 38 6.6 S 20 30 11 16 1027.4 1027.4 0.0
01/01:00pm 18.1 13.1 3.4 37 6.9 S 19 32 10 17 1027.6 1027.6 0.0
01/12:30pm 17.9 12.6 3.1 37 6.8 SSW 20 32 11 17 1028.0 1028.0 0.0
01/12:00pm 17.7 12.6 3.1 37 6.7 S 19 30 10 16 1028.2 1028.2 0.0
01/11:30am 18.0 12.7 2.0 34 7.2 S 19 30 10 16 1028.2 1028.2 0.0
01/11:00am 16.8 11.9 1.7 36 6.7 S 17 22 9 12 1028.3 1028.3 0.0
01/10:30am 16.6 12.1 2.3 38 6.4 S 15 22 8 12 1028.4 1028.4 0.0
01/10:00am 16.1 12.3 3.7 43 5.7 S 13 24 7 13 1028.4 1028.4 0.0
01/09:30am 13.7 8.9 4.8 55 4.1 S 19 26 10 14 1028.5 1028.5 0.0
01/09:00am 14.1 9.8 5.1 54 4.2 SSW 17 24 9 13 1028.2 1028.2 0.0
01/08:30am 13.4 9.4 4.9 56 3.9 SW 15 20 8 11 1028.0 1028.0 0.0
01/08:00am 13.4 9.9 5.5 59 3.7 SW 13 19 7 10 1027.5 1027.5 0.0
01/07:30am 12.1 8.6 5.6 64 3.0 WSW 13 17 7 9 1027.2 1027.2 0.0
01/07:00am 9.5 5.6 5.3 75 1.9 W 15 17 8 9 1026.9 1026.9 0.0
01/06:30am 8.7 4.7 5.1 78 1.6 W 15 19 8 10 1026.5 1026.5 0.0
01/06:00am 7.5 3.5 5.0 84 1.1 WSW 15 17 8 9 1025.9 1025.9 0.0
01/05:30am 9.1 6.1 6.0 81 1.4 SSW 11 15 6 8 1025.5 1025.5 0.0
01/05:00am 9.4 5.5 5.4 76 1.8 W 15 17 8 9 1024.8 1024.8 0.0
01/04:30am 8.7 4.8 5.4 80 1.5 WSW 15 17 8 9 1024.5 1024.5 0.0
01/04:00am 9.7 5.9 6.0 78 1.7 WSW 15 19 8 10 1024.1 1024.1 0.0
01/03:30am 9.9 5.8 6.2 78 1.7 WSW 17 20 9 11 1023.9 1023.9 0.0
01/03:00am 8.3 5.1 5.2 81 1.4 W 11 13 6 7 1023.7 1023.7 0.0
01/02:30am 10.1 7.2 6.4 78 1.7 W 11 15 6 8 1023.6 1023.6 0.0
01/02:00am 9.9 6.2 6.2 78 1.7 W 15 19 8 10 1023.5 1023.5 0.0
01/01:30am 9.7 6.3 6.0 78 1.7 W 13 17 7 9 1023.4 1023.4 0.0
01/01:00am 9.1 5.3 5.8 80 1.5 W 15 17 8 9 1023.3 1023.3 0.0
01/12:30am 8.3 4.1 5.9 85 1.1 WSW 17 19 9 10 1023.3 1023.3 0.0
01/12:00am 8.9 5.5 6.1 82 1.3 WSW 13 15 7 8 1023.1 1023.1 0.0
 
Date/Time
CST
Temp
°C
App
Temp
°C
Dew
Point
Rel
Hum
%
Delta-T
°C
Wind Press
QNH
hPa
Press
MSL
hPa
Rain
since 9 am
mm
Dir
 
Spd
km/h
Gust
km/h
Spd
kts
Gust
kts
30/11:30pm 10.2 6.3 7.0 80 1.5 WSW 17 20 9 11 1022.7 1022.7 0.0
30/11:00pm 10.9 6.5 7.3 78 1.7 WSW 20 26 11 14 1022.6 1022.6 0.0
30/10:30pm 10.5 6.8 8.0 84 1.2 SW 17 22 9 12 1022.3 1022.3 0.0
30/10:00pm 10.0 6.3 6.3 78 1.7 WSW 15 15 8 8 1022.2 1022.2 0.0
30/09:30pm 10.2 6.5 6.1 76 1.9 SW 15 19 8 10 1021.9 1021.9 0.0
30/09:00pm 10.9 6.6 6.9 76 1.9 SW 19 22 10 12 1021.5 1021.5 0.0
30/08:30pm 11.6 7.6 6.8 72 2.3 SSW 17 28 9 15 1021.2 1021.2 0.0
30/08:00pm 11.5 8.3 6.9 73 2.2 SW 13 15 7 8 1020.4 1020.4 0.0
30/07:30pm 13.0 10.2 7.0 67 2.9 WSW 11 15 6 8 1019.9 1019.9 0.0
30/07:00pm 13.6 9.5 6.3 61 3.5 W 17 22 9 12 1019.2 1019.2 0.0
30/06:30pm 14.1 8.6 5.9 57 3.9 W 24 33 13 18 1018.6 1018.6 0.0
30/06:00pm 15.0 9.4 5.5 53 4.5 W 24 33 13 18 1018.0 1018.0 0.0
30/05:30pm 15.6 9.8 6.1 53 4.6 W 26 37 14 20 1017.4 1017.4 0.0
30/05:00pm 16.4 9.3 5.3 47 5.3 W 32 44 17 24 1017.0 1017.0 0.0
30/04:30pm 17.2 8.7 5.1 44 5.8 WSW 39 52 21 28 1016.4 1016.4 0.0
30/04:00pm 17.9 8.7 5.3 43 6.1 WSW 43 59 23 32 1015.9 1015.9 0.0
30/03:33pm 17.6 9.8 8.2 54 4.8 WSW 39 57 21 31 1015.6 1015.6 0.0
30/03:30pm 18.3 9.5 7.2 48 5.6 WSW 43 57 23 31 1015.5 1015.5 0.0
30/03:00pm 18.2 9.9 7.8 50 5.3 W 41 59 22 32 1015.3 1015.3 0.0
30/02:30pm 18.0 9.7 9.2 56 4.6 W 43 65 23 35 1014.9 1014.9 0.0
30/02:22pm 18.0 9.3 8.5 53 4.9 W 44 65 24 35 1014.9 1014.9 0.0
30/02:00pm 18.6 9.8 9.7 56 4.7 WSW 46 61 25 33 1014.6 1014.6 0.0
30/01:30pm 21.1 12.0 6.8 39 7.3 W 44 63 24 34 1013.9 1013.9 0.0
30/01:00pm 19.5 11.7 8.1 47 5.9 W 39 57 21 31 1013.9 1013.9 0.0
30/12:30pm 19.9 11.7 8.1 46 6.1 W 41 61 22 33 1013.8 1013.8 0.0
30/12:00pm 20.5 11.7 7.2 42 6.8 W 43 61 23 33 1013.5 1013.5 0.0
30/11:30am 20.6 11.6 6.6 40 7.1 W 43 65 23 35 1013.0 1013.0 0.0
30/11:00am 20.8 12.5 6.3 39 7.3 W 39 59 21 32 1013.0 1013.0 0.0
30/10:33am 20.8 11.7 5.8 37 7.5 W 43 61 23 33 1012.8 1012.8 0.0
30/10:30am 21.1 12.0 5.7 36 7.7 W 43 57 23 31 1012.8 1012.8 0.0
30/10:12am 20.3 11.7 6.7 41 6.9 W 41 59 22 32 1012.8 1012.8 0.0
30/10:00am 20.2 11.2 6.5 41 6.9 W 43 57 23 31 1012.7 1012.7 0.0
30/09:30am 20.8 12.7 6.9 40 7.1 W 39 61 21 33 1012.6 1012.6 0.0
30/09:24am 20.2 12.8 6.8 41 6.8 WNW 35 61 19 33 1012.5 1012.5 0.0
30/09:00am 20.0 12.5 6.2 40 6.9 WNW 35 50 19 27 1012.5 1012.5 0.0
30/08:32am 20.6 14.0 4.3 34 7.9 WNW 28 50 15 27 1012.5 1012.5 0.0
30/08:30am 20.8 14.5 4.0 33 8.1 WNW 26 37 14 20 1012.5 1012.5 0.0
30/08:00am 18.6 13.3 5.0 40 6.6 NNW 22 32 12 17 1012.4 1012.4 0.0
30/07:30am 16.4 13.8 7.9 57 4.3 N 11 19 6 10 1011.7 1011.7 0.0
30/07:00am 12.3 10.0 8.9 80 1.7 NNE 11 15 6 8 1012.4 1012.4 0.0
30/06:30am 10.3 7.4 8.2 87 1.0 N 13 17 7 9 1012.3 1012.3 0.0
30/06:00am 10.0 5.9 7.9 87 1.0 N 19 22 10 12 1012.0 1012.0 0.0
30/05:30am 10.1 6.4 8.0 87 1.0 NNW 17 20 9 11 1011.9 1011.9 0.0
30/05:00am 10.1 6.1 8.3 88 0.9 N 19 22 10 12 1011.6 1011.6 0.0
30/04:30am 10.7 7.2 8.9 89 0.9 NNW 17 20 9 11 1011.6 1011.6 0.0
30/04:00am 8.9 5.9 7.9 93 0.5 NNW 13 15 7 8 1011.6 1011.6 0.0
30/03:30am 7.7 4.8 6.6 93 0.5 NNW 11 15 6 8 1011.7 1011.7 0.0
30/03:00am 8.8 6.1 7.5 91 0.6 NNW 11 13 6 7 1011.9 1011.9 0.0
30/02:30am 7.5 4.9 6.2 91 0.6 N 9 11 5 6 1012.0 1012.0 0.0
30/02:00am 8.2 5.3 6.7 90 0.7 N 11 13 6 7 1012.5 1012.5 0.0
30/01:30am 11.9 9.6 9.1 83 1.4 WNW 11 17 6 9 1012.9 1012.9 0.0
30/01:29am 11.9 9.2 9.1 83 1.4 WNW 13 17 7 9 1012.9 1012.9 0.0
30/01:00am 6.9 5.1 5.3 89 0.7 W 4 9 2 5 1013.3 1013.3 0.0
30/12:30am 7.6 6.6 5.6 87 0.9 CALM 0 6 0 3 1013.8 1013.8 0.0
30/12:00am 9.1 7.3 7.2 88 0.9 NNW 6 7 3 4 1014.3 1014.3 0.0
 
Date/Time
CST
Temp
°C
App
Temp
°C
Dew
Point
Rel
Hum
%
Delta-T
°C
Wind Press
QNH
hPa
Press
MSL
hPa
Rain
since 9 am
mm
Dir
 
Spd
km/h
Gust
km/h
Spd
kts
Gust
kts
29/11:30pm 9.7 7.4 7.4 85 1.1 NNW 9 13 5 7 1014.5 1014.5 0.0
29/11:00pm 8.9 6.3 6.3 84 1.2 NNW 9 11 5 6 1014.7 1014.7 0.0
29/10:30pm 9.7 8.9 6.7 81 1.4 CALM 0 0 0 0 1014.9 1014.9 0.0
29/10:00pm 10.3 9.5 6.5 77 1.8 CALM 0 0 0 0 1015.0 1015.0 0.0
29/09:30pm 10.8 9.0 7.2 78 1.7 SSW 6 7 3 4 1014.7 1014.7 0.0
29/09:00pm 11.1 10.0 7.1 76 1.9 SW 2 6 1 3 1014.4 1014.4 0.0
29/08:30pm 10.7 8.7 6.4 75 2.0 SW 6 9 3 5 1014.2 1014.2 0.0
29/08:00pm 10.9 9.6 6.2 73 2.2 WNW 2 6 1 3 1014.1 1014.1 0.0
29/07:30pm 14.6 12.5 6.8 59 3.8 NW 7 9 4 5 1013.8 1013.8 0.0
29/07:00pm 15.1 12.8 7.4 60 3.8 WNW 9 11 5 6 1013.4 1013.4 0.0
29/06:30pm 17.0 14.2 6.9 51 5.0 WNW 11 13 6 7 1013.2 1013.2 0.0
29/06:00pm 18.6 15.1 7.1 47 5.8 WNW 15 20 8 11 1013.0 1013.0 0.0
29/05:30pm 20.1 15.8 6.9 42 6.7 WNW 19 26 10 14 1013.1 1013.1 0.0
29/05:00pm 21.0 15.7 6.6 39 7.3 WNW 24 32 13 17 1012.9 1012.9 0.0
29/04:30pm 21.4 16.5 6.7 38 7.5 WNW 22 32 12 17 1012.6 1012.6 0.0
29/04:00pm 22.0 17.1 6.8 37 7.8 WNW 22 33 12 18 1012.5 1012.5 0.0
29/03:30pm 22.2 17.6 6.5 36 8.0 NW 20 30 11 16 1012.5 1012.5 0.0
29/03:00pm 22.6 17.5 6.1 34 8.4 NNW 22 30 12 16 1012.6 1012.6 0.0
29/02:30pm 22.8 17.6 5.5 32 8.7 WNW 22 28 12 15 1012.8 1012.8 0.0
29/02:00pm 22.0 15.7 5.9 35 8.1 NW 28 33 15 18 1013.3 1013.3 0.0
29/01:30pm 22.6 17.6 6.3 34 8.3 NNW 22 32 12 17 1013.6 1013.6 0.0
29/01:00pm 21.2 16.6 6.4 38 7.5 WNW 20 32 11 17 1014.0 1014.0 0.0
29/12:30pm 21.7 17.1 6.3 36 7.8 WNW 20 41 11 22 1014.1 1014.1 0.0
29/12:00pm 20.8 16.4 6.6 39 7.2 NW 19 32 10 17 1014.7 1014.7 0.0
29/11:30am 20.5 16.4 6.4 40 7.1 NW 17 28 9 15 1015.0 1015.0 0.0
29/11:00am 20.7 16.8 7.0 41 7.0 WNW 17 24 9 13 1015.6 1015.6 0.0
29/10:30am 19.1 14.8 7.0 45 6.1 NW 19 24 10 13 1015.8 1015.8 0.0
29/10:00am 18.3 14.5 7.4 49 5.5 WNW 17 22 9 12 1016.1 1016.1 0.0
29/09:30am 18.2 14.7 8.8 54 4.9 N 17 24 9 13 1016.1 1016.1 0.0
29/09:00am 18.2 14.8 9.0 55 4.8 NNW 17 26 9 14 1016.1 1016.1 0.0
29/08:30am 15.7 13.2 9.7 67 3.1 N 13 19 7 10 1015.9 1015.9 0.0
29/08:00am 15.7 14.7 10.2 70 2.9 N 6 9 3 5 1015.6 1015.6 0.0
29/07:30am 12.4 10.7 9.7 83 1.4 N 9 11 5 6 1015.5 1015.5 0.0
29/07:00am 9.9 7.4 8.3 90 0.8 NNW 11 13 6 7 1015.6 1015.6 0.0
29/06:30am 7.6 5.4 6.1 90 0.7 NNW 7 13 4 7 1015.4 1015.4 0.0
29/06:00am 7.3 3.9 6.0 91 0.6 NW 13 17 7 9 1015.1 1015.1 0.0
29/05:30am 8.2 5.4 6.9 91 0.6 NW 11 15 6 8 1014.9 1014.9 0.0
29/05:00am 6.8 3.7 5.7 93 0.5 NNW 11 15 6 8 1014.6 1014.6 0.0
29/04:30am 9.9 7.4 8.3 90 0.8 W 11 13 6 7 1014.3 1014.3 0.0
29/04:00am 9.6 7.4 7.9 89 0.8 W 9 13 5 7 1014.1 1014.1 0.0
29/03:30am 11.6 9.1 8.4 81 1.6 WNW 11 15 6 8 1013.9 1013.9 0.0
29/03:00am 11.1 9.0 8.2 82 1.4 WNW 9 15 5 8 1013.9 1013.9 0.0
29/02:30am 12.9 9.8 8.7 75 2.1 WNW 15 19 8 10 1013.8 1013.8 0.0
29/02:00am 10.7 8.4 7.6 81 1.5 NNE 9 15 5 8 1014.0 1014.0 0.0
29/01:30am 12.5 11.4 8.5 76 2.0 W 4 13 2 7 1014.1 1014.1 0.0
29/01:00am 13.7 10.9 8.5 71 2.6 W 13 26 7 14 1014.2 1014.2 0.0
29/12:30am 14.0 10.1 8.6 70 2.7 W 19 26 10 14 1014.3 1014.3 0.0
29/12:00am 14.1 10.9 8.3 68 2.9 W 15 20 8 11 1014.4 1014.4 0.0
 
Date/Time
CST
Temp
°C
App
Temp
°C
Dew
Point
Rel
Hum
%
Delta-T
°C
Wind Press
QNH
hPa
Press
MSL
hPa
Rain
since 9 am
mm
Dir
 
Spd
km/h
Gust
km/h
Spd
kts
Gust
kts
28/11:30pm 14.4 10.2 7.5 63 3.4 W 19 26 10 14 1014.1 1014.1 0.0
28/11:00pm 14.3 11.3 7.6 64 3.3 W 13 20 7 11 1014.2 1014.2 0.0
28/10:30pm 13.5 11.3 7.8 68 2.8 WSW 9 17 5 9 1013.9 1013.9 0.0
28/10:00pm 14.1 11.5 7.6 65 3.2 WSW 11 17 6 9 1013.6 1013.6 0.0
28/09:30pm 14.6 10.6 8.2 65 3.2 WSW 19 26 10 14 1013.6 1013.6 0.0
28/09:00pm 15.0 10.1 8.5 65 3.3 WSW 24 39 13 21 1013.4 1013.4 0.0
28/08:30pm 14.8 10.5 7.8 63 3.5 SW 20 30 11 16 1013.0 1013.0 0.0
28/08:00pm 15.2 11.6 8.3 63 3.5 SW 17 30 9 16 1012.3 1012.3 0.0

Other Formats:

Comma delimited format used in spreadsheet applications
http://www.bom.gov.au/fwo/IDS60801/IDS60801.95818.axf

JavaScript Object Notation format (JSON) in row-major order
http://www.bom.gov.au/fwo/IDS60801/IDS60801.95818.json